Location: Dessau
(51.7984°N, 12.2168°E)
Time: 14:55:33
(UTC+02:00)

ISS - Pass Details

Date: 05 January 2018
Orbit: 402 x 408 km, 51.6° (Epoch: 20 July)

Event Time Altitude Azimuth Distance (km) Brightness Sun altitude
Exits shadow 04:41:55 11° 84° (E) 1,450 -0.2 -32.1°
Drops below altitude 10° 04:42:02 10° 83° (E) 1,499 -0.1 -32.1°
Enters shadow 05:39:10 -67° 261° (W) 12,154 3.6 -23.2°
Maximum altitude 06:15:22 89° 180° (S) 424 -3.9 -17.7°
